Location: Avenches
(46.8809°N, 7.0410°E)
Time: 12:51:51
(UTC+00:00)

Cosmos 1626 Rocket - Pass Details

Date: 30 March 2020
Orbit: 602 x 631 km, 82.5° (Epoch: 27 May)

Event Time Altitude Azimuth Distance (km) Brightness Sun altitude
Rises 19:03:00 0° 353° (N) 2,914 7.4 -11.5°
Reaches altitude 10° 19:05:16 10° 356° (N) 1,998 6.5 -11.9°
Maximum altitude 19:09:41 68° 79° (E) 667 3.5 -12.6°
Drops below altitude 10° 19:14:01 10° 163° (SSE) 1,964 5.8 -13.3°
Enters shadow 19:14:45 - 164° (SSE) 2,260 6.1 -13.4°
